Location: Hradec Kralove
(50.2170°N, 15.8330°E)
Time: 05:45:19
(UTC+02:00)

Explorer 7 - Pass Details

Date: 02 February 2023
Orbit: 478 x 657 km, 50.3° (Epoch: 25 March)

Event Time Altitude Azimuth Distance (km) Brightness Sun altitude
Rises 12:16:11 0° 220° (SW) 2,674 11.1 23.0°
Reaches altitude 10° 12:18:30 10° 210° (SSW) 1,818 10.7 22.9°
Maximum altitude 12:22:13 32° 147° (SSE) 990 9.3 22.9°
Drops below altitude 10° 12:26:09 10° 84° (E) 1,932 9.6 22.9°
Sets 12:28:40 0° 75° (ENE) 2,872 10.3 22.9°
